Location: N�rnberg
(49.4489°N, 11.0797°E)
Time: 11:23:40
(UTC+01:00)

ISS - Pass Details

Date: 10 February 2018
Orbit: 402 x 407 km, 51.6° (Epoch: 24 February)

Event Time Altitude Azimuth Distance (km) Brightness Sun altitude
Rises 18:39:21 0° 288° (WNW) 2,322 1.3 -12.3°
Reaches altitude 10° 18:41:30 10° 281° (W) 1,460 0.3 -12.6°
Maximum altitude 18:44:35 39° 211° (SSW) 626 -2.6 -13.1°
Enters shadow 18:47:34 10° 141° (SE) 1,428 -1.4 -13.6°
